User: anonymous   Login
Location: Fort Wayne
(41.1310°N, 85.1290°W)
Time: 13:52:05
(UTC-04:00)
Language:

BREEZE-M DEB (TANK) - Orbit

View from above orbital plane
View from above orbital plane
View from above satellite
View from above satellite

Ground track
Ground track

The orbit data is extracted from the following two-line orbital elements,

1 27821U 03024B   14294.36508317  .00007469  00000-0  92180-3 0  5122
2 27821 049.5865 055.3911 5004599 018.8797 004.5789 05.63567325225087
Epoch (UTC): 21 October 2014 08:45:43
Eccentricity: 0.5004599
inclination: 49.5865°
perigee height: 285 km
apogee height: 13635 km
right ascension of ascending node: 55.3911°
argument of perigee: 18.8797°
revolutions per day: 5.63567325
mean anomaly at epoch: 4.5789°
orbit number at epoch: 22508

The dashed part of the orbit path shows where the satellite is in the earth's shadow,  

DLR